Other Public Products
Issued by NWS Charleston, SC

Current Version | Previous Version | Graphics & Text | Print | Product List | Glossary On
Versions: 1 2 3 4 5 6 7 8 9 10 11 12 13 14 15 16 17 18 19 20 21 22 23 24 25 26 27 28 29 30 31 32 33 34 35 36 37 38 39 40 41 42 43 44 45 46 47 48 49 50
664 FPUS82 KCHS 172012 OPUCHS TEST...KCHS/KSAV Gateway Observations...TEST National Weather Service Charleston SC 300 PM EST TUE JAN 17 2017 NOTE: "fair" indicates few or no clouds below 12,000 feet with no significant weather and/or obstructions to visibility. SCZ050-WAZ558-NCZ071-TXZ119-213-PAZ071-DCZ001-FLZ074-172-MI076- NYZ176-178-MAZ016-IL014-TNZ027-NJZ106-GAZ044-MD014-172100- ...Gateway Observations for Charleston International... CITY SKY/WX TMP DP RH WIND PRES REMARKS Chas Airport MOSUNNY 77 55 46 SW12 30.17F Seattle LGT RAIN 46 36 68 E6 29.74F Charlotte CLOUDY 64 53 67 SW10 30.13F Dallas DFW CLOUDY 50 37 61 CALM 30.16F Dallas Love CLOUDY 51 37 58 CALM 30.16F Philladelphia CLOUDY 44 40 85 SE3 30.08F FOG Wash National LGT RAIN 46 46 100 S6 30.02F FOG Baltimore LGT RAIN 44 44 100 SE6 30.02F FOG Miami PTSUNNY 80 61 52 SE7G17 30.19S Detroit CLOUDY 47 45 93 SW13 29.78R FOG Newark LGT RAIN 40 36 86 E7 30.10F FOG WCI 35 Laguardia LGT RAIN 41 35 79 E8 30.11F J F K LGT RAIN 41 35 79 E5 30.13F Boston Logan CLOUDY 41 30 65 NE9 30.19F Ft. Lauderdale PTSUNNY 78 63 59 SE13 30.17F Chicago O`Hare CLOUDY 38 36 92 W12 29.86R WCI 30 Chicago Midway CLOUDY 37 35 92 SW12 29.88R WCI 29 Houston Bush LGT RAIN 60 57 89 N12 30.06F Houston Hobby CLOUDY 63 61 93 N10 30.05F Nashville CLOUDY 62 54 74 W7 30.01S Atlanta CLOUDY 72 56 57 SW15G22 30.14S $$ GAZ044-118-TXZ119-213-NCZ071-DCZ001-MDZ014-506-PAZ021-071-NJZ106- NYZ176-178-MAZ106-OHZ011-021-055-MIZ076-KYZ091-ILZ014-INZ047- MNZ060-172100- ...Gateway Observations for Savannah International... CITY SKY/WX TMP DP RH WIND PRES REMARKS Savannah Arpt PTSUNNY 75 56 51 SW10 30.18F Atlanta CLOUDY 72 56 57 SW15G22 30.14S Charlotte CLOUDY 64 53 67 SW10 30.13F Dallas DFW CLOUDY 50 37 61 CALM 30.16F Houston Bush LGT RAIN 60 57 89 N12 30.06F Wash National LGT RAIN 46 46 100 S6 30.02F FOG Wash Dulles RAIN 46 44 93 SE7 30.00F VSB 3/4 Baltimore LGT RAIN 44 44 100 SE6 30.02F FOG Philadelphia CLOUDY 44 40 85 SE3 30.08F FOG Newark LGT RAIN 40 36 86 E7 30.10F FOG WCI 35 Laguardia LGT RAIN 41 35 79 E8 30.11F J F K LGT RAIN 41 35 79 E5 30.13F Boston CLOUDY 41 30 65 NE9 30.19F Pittsburg PTSUNNY 61 53 75 SW14 29.81F Akron PTSUNNY 59 47 64 W17G24 29.81R Cleveland PTSUNNY 57 45 64 W17G23 29.82R Cincinnati CLOUDY 57 48 72 W14G23 29.90R Columbus N/A 57 51 79 W13 29.86S Detroit CLOUDY 47 45 93 SW13 29.78R FOG Chicago O`Hare CLOUDY 38 36 92 W12 29.86R WCI 30 Minneapolis CLOUDY 35 29 78 NW10 29.97R WCI 27 Indianapolis CLOUDY 46 41 82 W20 29.93S $$

USA.gov is the U.S. government's official web portal to all federal, state and local government web resources and services.